Tracking 29069 objects as of 18-Jul-2024
HD Live streaming from Space Station
objects crossing your sky now

COSMOS 886 DEB

Track COSMOS 886 DEB now!
10-day predictions


NORAD ID: 9963
Int'l Code: 1976-126BD
Perigee: 546.2 km
Apogee: 1,747.4 km
Inclination: 65.8 °
Period: 108.1 minutes
Semi major axis: 7517 km
RCS: 0.135 m2 (medium)
Launch date: December 27, 1976
Source: Commonwealth of Independent States (former USSR) (CIS)
Launch site: TYURATAM MISSILE AND SPACE COMPLEX (TTMTR)

Note: This is SATELLITE DEBRIS
Your satellite tracking list
Your tracking list is empty




NASA's NSSDC Master Catalog

Two Line Element Set (TLE):
1 09963U 76126BD  24199.93135070  .00003916  00000-0  12923-2 0  9990
2 09963  65.7971   2.0533 0798894  32.1440 332.5819 13.31895231260573
Source of the keplerian elements: AFSPC